Weather in Karbala

Iraq     32°36′10″N   44°02′14″E
temp.,
°C
wind,
m/s
gust,
m/s
humid.,
%
clouds,
%
prec.,
mm/h
press.,
hPa
HPBL,
m
13 may, thu
thu1300:00+32se22190 0.0 100547
03:00+30s22230 0.0 100422
06:00+30n11230 0.0 100523
09:00+35n11170 0.0 1006497
12:00+38n22130 0.0 10051490
15:00+40wnw02100 0.0 10033120
18:00+38nnw11130 0.0 1003531
21:00+35n34130 0.0 1004119
14 may, fri
fri1400:00+34ne45120 0.0 100469
03:00+32nne34150 0.0 100447
06:00+31nne33140 0.0 100535
09:00+36nw22100 0.0 1006502
12:00+39nw4390 0.0 10061161
15:00+41wnw6680 0.0 10043277
18:00+38nw5790 0.0 1004762
21:00+36nnw58100 0.0 1004126
15 may, sat
sat1500:00+34n59120 0.0 1004138
03:00+30nw57240 0.0 1004111
06:00+29nw57270 0.0 1005131
09:00+33nw77170 0.0 1006444
12:00+39nw77120 0.0 10052036
15:00+40nw8890 0.0 10033730
18:00+38nw68120 0.0 1003874
21:00+33wnw611180 0.0 1004173
16 may, sun
sun1600:00+31nw611180 0.0 1004182
03:00+31nne611130 0.0 1003168
06:00+28nw56260 0.0 1004109
09:00+35nw56100 0.0 1005434
12:00+39wnw5570 0.0 10051080
15:00+40wnw5560 0.0 10031875
18:00+39nnw3470 0.0 1003623
21:00+36e4480 0.0 100347
17 may, mon
mon1700:00+32ese33100 0.0 100327
03:00+31ese33100 0.0 100323
06:00+30e00110 0.0 100516
09:00+37s4575 0.0 1005523
12:00+41s5660 0.0 10041678
15:00+43s6754 0.0 10023329
18:00+42ese445100 0.0 1000522
21:00+38ene45649 0.0 100070